| time (UTC) | temp F | wind direction | speed MPH | gust MPH | rain 1hr in | rain 24hr in | rain mn in | humidity % | barometer mb |
| 20260506233007 | 56 | 157 | 4.0 | 12.0 | 0.00 | 0.40 | 0.40 | 96 | 1004.0 |
| 20260506231533 | 56 | 165 | 7.0 | 12.0 | 0.00 | 0.40 | 0.40 | 96 | 1004.1 |
| 20260506230003 | 56 | 132 | 4.0 | 11.0 | 0.00 | 0.40 | 0.40 | 96 | 1004.0 |
| 20260506224533 | 56 | 181 | 3.0 | 10.0 | 0.01 | 0.40 | 0.40 | 96 | 1004.4 |
| 20260506223059 | 56 | 156 | 5.0 | 10.0 | 0.01 | 0.40 | 0.40 | 96 | 1004.5 |
| 20260506221525 | 56 | 200 | 3.0 | 11.0 | 0.01 | 0.40 | 0.40 | 96 | 1004.6 |
| 20260506220055 | 56 | 203 | 3.0 | 10.0 | 0.02 | 0.40 | 0.40 | 96 | 1004.8 |
| 20260506214537 | 56 | 208 | 3.0 | 10.0 | 0.05 | 0.39 | 0.39 | 96 | 1004.9 |
| 20260506213112 | 56 | 146 | 2.0 | 11.0 | 0.10 | 0.39 | 0.39 | 96 | 1004.9 |
| 20260506211522 | 56 | 114 | 2.0 | 12.0 | 0.12 | 0.39 | 0.39 | 96 | 1005.1 |
| 20260506210053 | 56 | 163 | 5.0 | 12.0 | 0.12 | 0.38 | 0.38 | 96 | 1005.1 |
| 20260506204517 | 57 | 118 | 5.0 | 9.0 | 0.07 | 0.33 | 0.33 | 95 | 1005.2 |
| 20260506203047 | 57 | 166 | 3.0 | 8.0 | 0.05 | 0.28 | 0.28 | 95 | 1005.2 |
| 20260506201506 | 57 | 138 | 2.0 | 8.0 | 0.07 | 0.27 | 0.27 | 95 | 1005.5 |
| 20260506200032 | 57 | 144 | 4.0 | 8.0 | 0.14 | 0.26 | 0.26 | 95 | 1005.3 |
| 20260506194603 | 57 | 130 | 4.0 | 7.0 | 0.22 | 0.26 | 0.26 | 95 | 1005.7 |
| 20260506193027 | 57 | 134 | 2.0 | 5.0 | 0.23 | 0.24 | 0.24 | 94 | 1005.9 |
| 20260506191559 | 57 | 178 | 3.0 | 8.0 | 0.20 | 0.20 | 0.20 | 94 | 1005.8 |
| 20260506190026 | 58 | 155 | 2.0 | 6.0 | 0.12 | 0.12 | 0.12 | 92 | 1006.4 |
| 20260506184555 | 59 | 230 | 3.0 | 9.0 | 0.04 | 0.04 | 0.04 | 90 | 1006.0 |
| 20260506183033 | 60 | 172 | 1.0 | 11.0 | 0.01 | 0.01 | 0.01 | 86 | 1006.0 |
| 20260506181620 | 61 | 150 | 3.0 | 9.0 | 0.00 | 0.00 | 0.00 | 83 | 1005.7 |
| 20260506180027 | 63 | 132 | 4.0 | 12.0 | 0.00 | 0.00 | 0.00 | 78 | 1005.7 |
| 20260506174553 | 64 | 203 | 4.0 | 10.0 | 0.00 | 0.00 | 0.00 | 77 | 1005.6 |
| 20260506173019 | 64 | 167 | 3.0 | 9.0 | 0.00 | 0.00 | 0.00 | 78 | 1005.9 |
| 20260506171545 | 63 | 127 | 5.0 | 11.0 | 0.00 | 0.00 | 0.00 | 78 | 1006.0 |
| 20260506170011 | 63 | 125 | 3.0 | 9.0 | 0.00 | 0.00 | 0.00 | 79 | 1006.4 |
| 20260506164538 | 63 | 117 | 3.0 | 7.0 | 0.00 | 0.00 | 0.00 | 79 | 1006.6 |
| 20260506163001 | 63 | 143 | 3.0 | 7.0 | 0.00 | 0.00 | 0.00 | 80 | 1006.9 |
| 20260506161518 | 63 | 119 | 5.0 | 8.0 | 0.00 | 0.00 | 0.00 | 80 | 1007.5 |
| 20260506160053 | 62 | 134 | 3.0 | 6.0 | 0.00 | 0.00 | 0.00 | 81 | 1007.8 |
| 20260506154517 | 62 | 126 | 1.0 | 7.0 | 0.00 | 0.00 | 0.00 | 81 | 1008.1 |
| 20260506153108 | 61 | 142 | 3.0 | 9.0 | 0.00 | 0.00 | 0.00 | 81 | 1008.0 |
| 20260506151514 | 61 | 158 | 3.0 | 7.0 | 0.00 | 0.00 | 0.00 | 81 | 1008.1 |
| 20260506150050 | 61 | 123 | 3.0 | 9.0 | 0.00 | 0.00 | 0.00 | 81 | 1008.0 |
| 20260506144516 | 62 | 172 | 3.0 | 7.0 | 0.00 | 0.00 | 0.00 | 80 | 1007.8 |
| 20260506143042 | 62 | 140 | 2.0 | 7.0 | 0.00 | 0.00 | 0.00 | 80 | 1007.5 |
| 20260506141513 | 62 | 102 | 1.0 | 6.0 | 0.00 | 0.00 | 0.00 | 81 | 1007.6 |
| 20260506140041 | 63 | 162 | 2.0 | 3.0 | 0.00 | 0.00 | 0.00 | 79 | 1008.2 |
| 20260506134507 | 62 | 152 | 0.0 | 4.0 | 0.00 | 0.00 | 0.00 | 81 | 1008.3 |
| 20260506133027 | 61 | 162 | 0.0 | 3.0 | 0.00 | 0.00 | 0.00 | 82 | 1008.2 |
| 20260506131556 | 60 | 159 | 0.0 | 2.0 | 0.00 | 0.00 | 0.00 | 82 | 1008.0 |
| 20260506130021 | 60 | 148 | 2.0 | 3.0 | 0.00 | 0.00 | 0.00 | 82 | 1008.2 |
| 20260506124551 | 60 | 173 | 0.0 | 5.0 | 0.00 | 0.00 | 0.00 | 82 | 1008.1 |
| 20260506123021 | 59 | 100 | 3.0 | 6.0 | 0.00 | 0.00 | 0.00 | 83 | 1008.2 |
| 20260506121541 | 57 | 124 | 1.0 | 4.0 | 0.00 | 0.00 | 0.00 | 85 | 1008.5 |
| 20260506120018 | 56 | 119 | 2.0 | 3.0 | 0.00 | 0.00 | 0.00 | 85 | 1008.5 |
| 20260506114541 | 56 | 117 | 0.0 | 0.0 | 0.00 | 0.00 | 0.00 | 86 | 1008.7 |
| 20260506113023 | 55 | 131 | 0.0 | 0.0 | 0.00 | 0.00 | 0.00 | 87 | 1008.8 |
| 20260506111539 | 54 | 132 | 0.0 | 4.0 | 0.00 | 0.00 | 0.00 | 87 | 1008.9 |
| 20260506110003 | 54 | 180 | 1.0 | 5.0 | 0.00 | 0.00 | 0.00 | 87 | 1009.0 |
| 20260506104533 | 54 | 146 | 0.0 | 3.0 | 0.00 | 0.00 | 0.00 | 87 | 1008.9 |
| 20260506103057 | 53 | 167 | 0.0 | 2.0 | 0.00 | 0.00 | 0.00 | 87 | 1008.8 |
| 20260506101522 | 53 | 131 | 2.0 | 4.0 | 0.00 | 0.00 | 0.00 | 87 | 1008.5 |
| 20260506100050 | 53 | 159 | 0.0 | 3.0 | 0.00 | 0.00 | 0.00 | 87 | 1008.5 |
| 20260506094514 | 53 | 121 | 0.0 | 3.0 | 0.00 | 0.00 | 0.00 | 86 | 1008.5 |
| 20260506093039 | 54 | 108 | 0.0 | 2.0 | 0.00 | 0.00 | 0.00 | 86 | 1008.5 |
| 20260506091505 | 54 | 150 | 2.0 | 5.0 | 0.00 | 0.00 | 0.00 | 85 | 1008.6 |
| 20260506090024 | 54 | 141 | 1.0 | 3.0 | 0.00 | 0.00 | 0.00 | 84 | 1008.4 |
| 20260506084549 | 55 | 152 | 0.0 | 0.0 | 0.00 | 0.00 | 0.00 | 84 | 1008.2 |
| 20260506083009 | 55 | 209 | 0.0 | 2.0 | 0.00 | 0.00 | 0.00 | 83 | 1008.3 |
| 20260506081533 | 55 | 151 | 2.0 | 4.0 | 0.00 | 0.00 | 0.00 | 83 | 1007.8 |
| 20260506080107 | 56 | 128 | 1.0 | 4.0 | 0.00 | 0.00 | 0.00 | 83 | 1008.0 |
| 20260506073043 | 56 | 215 | 0.0 | 6.0 | 0.00 | 0.00 | 0.00 | 82 | 1008.0 |
| 20260506071505 | 56 | 157 | 2.0 | 7.0 | 0.00 | 0.00 | 0.00 | 82 | 1007.7 |
| 20260506061546 | 56 | 184 | 1.0 | 4.0 | 0.00 | 0.00 | 0.00 | 81 | 1007.4 |
| 20260506044514 | 57 | 221 | 0.0 | 3.0 | 0.00 | 0.00 | 0.00 | 81 | 1007.5 |
| 20260506043040 | 57 | 160 | 2.0 | 3.0 | 0.00 | 0.00 | 0.00 | 79 | 1007.3 |
| 20260506041551 | 58 | 188 | 2.0 | 9.0 | 0.00 | 0.00 | 0.00 | 78 | 1007.5 |
| 20260506040007 | 60 | 161 | 1.0 | 5.0 | 0.00 | 0.00 | 0.00 | 76 | 1007.4 |
| 20260506034542 | 61 | 163 | 2.0 | 6.0 | 0.00 | 0.00 | 0.00 | 73 | 1007.3 |
| 20260506033102 | 63 | 208 | 2.0 | 7.0 | 0.00 | 0.00 | 0.00 | 72 | 1007.1 |
| 20260506031529 | 63 | 177 | 0.0 | 4.0 | 0.00 | 0.00 | 0.00 | 73 | 1007.0 |
| 20260506030056 | 63 | 182 | 1.0 | 5.0 | 0.00 | 0.00 | 0.00 | 72 | 1007.0 |
| 20260506024544 | 63 | 160 | 2.0 | 5.0 | 0.00 | 0.00 | 0.00 | 72 | 1007.3 |
| 20260506023044 | 64 | 154 | 1.0 | 4.0 | 0.00 | 0.00 | 0.00 | 71 | 1007.3 |
| 20260506021510 | 63 | 192 | 1.0 | 5.0 | 0.00 | 0.00 | 0.00 | 72 | 1007.6 |
| 20260506020038 | 64 | 162 | 1.0 | 3.0 | 0.00 | 0.00 | 0.00 | 72 | 1007.5 |
| 20260506014505 | 64 | 175 | 0.0 | 4.0 | 0.00 | 0.00 | 0.00 | 71 | 1007.5 |
| 20260506013041 | 64 | 173 | 1.0 | 7.0 | 0.00 | 0.00 | 0.00 | 71 | 1007.6 |
| 20260506011608 | 64 | 190 | 2.0 | 5.0 | 0.00 | 0.00 | 0.00 | 72 | 1007.6 |
| 20260506010025 | 64 | 142 | 0.0 | 2.0 | 0.00 | 0.00 | 0.00 | 75 | 1007.5 |
| 20260506004546 | 64 | 161 | 1.0 | 6.0 | 0.00 | 0.00 | 0.00 | 77 | 1007.2 |
| 20260506003012 | 63 | 177 | 0.0 | 3.0 | 0.00 | 0.00 | 0.00 | 82 | 1007.3 |
| 20260506001532 | 63 | 288 | 0.0 | 2.0 | 0.00 | 0.00 | 0.00 | 81 | 1007.0 |
| 20260506000053 | 63 | 189 | 1.0 | 6.0 | 0.00 | 0.00 | 0.00 | 81 | 1005.9 |
| 20260505234525 | 65 | 269 | 2.0 | 5.0 | 0.00 | 0.00 | 0.00 | 80 | 1005.6 |